Flag for Hungary

Past Weather in Budapest, Hungary — June 2019

Now
88 °F

Sunny.


Feels Like: 86 °F
Forecast: 74 / 60 °F
Wind: 15 mph from Northwest

Location: Ferenc Liszt International Airport

Current Time: Jul 6, 2020 at 3:45:46 pm

Latest Report: Jul 6, 2020 at 3:00 pm


Visibility: 10 mi

Pressure: 29.80 "Hg

Humidity: 33%

Dew Point: 55 °F

Location of BudapestLocation

June 2019 Weather in Budapest — Graph

°F

High & Low Weather Summary for June 2019

 TemperatureHumidityPressure
High93 °F (Jun 27, 2:30 pm)100% (Jun 1, 12:00 am)30.27 "Hg (Jun 1, 12:00 am)
Low55 °F (Jun 1, 2:30 am)24% (Jun 14, 7:30 pm)29.83 "Hg (Jun 5, 4:00 am)
Average73 °F74%30.02 "Hg
* Reported Jun 1 12:00 am — Jun 30 11:30 pm, Budapest. Weather by CustomWeather, © 2020

Note: Actual official high and low records may vary slightly from our data, if they occured in-between our weather recording intervals... More about our weather records

Budapest Weather History for June 1, 2019

Scroll right to see more
 ConditionsComfort  
Time TempWeatherWind HumidityBarometerVisibility
12:00 am
Sat, Jun 1
61 °FClear.5 mph100%30.15 "Hg10 mi
12:30 am59 °FPassing clouds.5 mph100%30.15 "HgN/A
1:00 am57 °FClear.8 mph100%30.15 "Hg10 mi
1:30 am57 °FClear.3 mph100%30.15 "Hg10 mi
2:00 am57 °FClear.6 mph100%30.15 "Hg10 mi
2:30 am55 °FClear.7 mph100%30.12 "Hg10 mi
3:00 am55 °FClear.7 mph100%30.12 "Hg10 mi
3:30 am55 °FClear.6 mph100%30.12 "Hg10 mi
4:00 am55 °FClear.5 mph100%30.12 "Hg10 mi
4:30 am55 °FClear.5 mph100%30.12 "Hg10 mi
5:00 am55 °FSunny.6 mph100%30.12 "Hg10 mi
5:30 am55 °FSunny.6 mph100%30.12 "Hg10 mi
6:00 am57 °FSunny.7 mph100%30.12 "Hg10 mi
6:30 am59 °FSunny.9 mph100%30.12 "Hg10 mi
7:00 am61 °FSunny.10 mph88%30.12 "Hg10 mi
7:30 am63 °FPassing clouds.8 mph77%30.12 "HgN/A
8:00 am66 °FSunny.12 mph78%30.12 "Hg10 mi
8:30 am66 °FSunny.12 mph68%30.12 "Hg10 mi
9:00 am68 °FSunny.13 mph64%30.12 "Hg10 mi
9:30 am70 °FSunny.14 mph60%30.12 "Hg10 mi
10:00 am72 °FPartly sunny.15 mph53%30.12 "HgN/A
10:30 am72 °FPartly sunny.16 mph53%30.09 "HgN/A
11:00 am73 °FPartly sunny.16 mph47%30.09 "HgN/A
11:30 am73 °FScattered clouds.18 mph47%30.09 "HgN/A
12:00 pm73 °FScattered clouds.20 mph44%30.09 "HgN/A
12:30 pm75 °FPassing clouds.17 mph41%30.09 "HgN/A
1:00 pm75 °FPassing clouds.15 mph44%30.09 "HgN/A
1:30 pm75 °FPassing clouds.13 mph44%30.09 "HgN/A
2:00 pm75 °FPassing clouds.10 mph44%30.09 "HgN/A
2:30 pm77 °FPassing clouds.10 mph42%30.07 "HgN/A
3:00 pm75 °FPassing clouds.13 mph41%30.07 "HgN/A
3:30 pm75 °FSunny.13 mph44%30.07 "Hg10 mi
4:00 pm75 °FSunny.12 mph47%30.07 "Hg10 mi
4:30 pm75 °FSunny.13 mph44%30.04 "Hg10 mi
5:00 pm77 °FPassing clouds.10 mph42%30.04 "HgN/A
5:30 pm77 °FSunny.10 mph42%30.04 "Hg10 mi
6:00 pm75 °FSunny.10 mph44%30.04 "Hg10 mi
6:30 pm77 °FPassing clouds.9 mph44%30.04 "HgN/A
7:00 pm75 °FPassing clouds.10 mph50%30.04 "HgN/A
7:30 pm73 °FPassing clouds.9 mph53%30.04 "HgN/A
8:00 pm72 °FSunny.6 mph57%30.04 "Hg10 mi
8:30 pm66 °FPassing clouds.6 mph73%30.04 "HgN/A
9:00 pm64 °FClear.2 mph88%30.04 "Hg10 mi
9:30 pm63 °FClear.3 mph94%30.04 "Hg10 mi
10:00 pm61 °FClear.3 mph94%30.07 "Hg10 mi
10:30 pm63 °FClear.5 mph94%30.07 "Hg10 mi
11:00 pm64 °FClear.7 mph83%30.07 "Hg10 mi
11:30 pm63 °FClear.7 mph88%30.07 "Hg10 mi
Weather by CustomWeather, © 2020

See weather overview